KC7MRQ Weather Reports


Display with metric or nautical units.
time (UTC)temp
F
wind
direction
speed
MPH
gust
MPH
rain 1hr
in
rain 24hr
in
rain mn
in
humidity
%
barometer
mb
20260508033004 50 230 6.0 8.0 0.00 0.00 0.00 59 1009.6
20260508031504 51 252 6.0 9.0 0.00 0.00 0.00 60 1009.5
20260508030003 53 345 6.0 9.0 0.00 0.00 0.00 59 1009.3
20260508024503 52 345 5.0 8.0 0.00 0.00 0.00 61 1009.1
20260508023001 54 345 5.0 10.0 0.00 0.00 0.00 58 1008.9
20260508021501 55 250 8.0 11.0 0.00 0.00 0.00 56 1008.7
20260508020004 54 356 7.0 15.0 0.00 0.00 0.00 58 1008.5
20260508014601 54 2 11.0 18.0 0.00 0.00 0.00 57 1008.5
20260508013059 55 20 10.0 18.0 0.00 0.00 0.00 56 1008.3
20260508011609 55 2 15.0 22.0 0.00 0.00 0.00 56 1008.3
20260508010057 54 7 15.0 21.0 0.00 0.00 0.00 58 1008.3
20260508004600 56 10 15.0 24.0 0.00 0.00 0.00 57 1008.1
20260508003056 56 14 12.0 22.0 0.00 0.00 0.00 53 1008.0
20260508001556 56 246 14.0 24.0 0.00 0.00 0.00 53 1007.9
20260508000058 58 4 12.0 20.0 0.00 0.00 0.00 52 1007.6
20260507234557 60 9 13.0 20.0 0.00 0.00 0.00 47 1007.6
20260507233053 63 297 15.0 25.0 0.00 0.00 0.00 35 1007.3
20260507231552 63 228 8.0 23.0 0.00 0.00 0.00 35 1007.4
20260507230048 62 214 12.0 21.0 0.00 0.00 0.00 36 1007.4
20260507224549 62 208 12.0 23.0 0.00 0.00 0.00 38 1007.5
20260507223053 62 209 10.0 18.0 0.00 0.00 0.00 40 1007.5
20260507221545 60 221 7.0 16.0 0.00 0.00 0.00 41 1007.5
20260507220045 60 3 6.0 13.0 0.00 0.00 0.00 44 1007.6
20260507214544 62 25 7.0 18.0 0.00 0.00 0.00 35 1007.7
20260507213046 61 188 8.0 12.0 0.00 0.00 0.00 40 1007.8
20260507211539 60 228 12.0 18.0 0.00 0.00 0.00 39 1008.1
20260507210043 59 208 8.0 18.0 0.00 0.00 0.00 40 1008.3
20260507204542 60 210 9.0 20.0 0.00 0.00 0.00 39 1008.3
20260507203043 61 210 9.0 19.0 0.00 0.00 0.00 38 1008.1
20260507201538 60 217 15.0 24.0 0.00 0.00 0.00 38 1008.1
20260507200035 61 345 3.0 11.0 0.00 0.00 0.00 38 1008.0
20260507194534 60 345 3.0 13.0 0.00 0.00 0.00 41 1008.1
20260507193029 58 245 7.0 16.0 0.00 0.00 0.00 41 1008.1
20260507191528 58 239 12.0 18.0 0.00 0.00 0.00 41 1008.3
20260507190026 58 345 10.0 19.0 0.00 0.00 0.00 42 1008.3
20260507184524 57 345 12.0 18.0 0.00 0.00 0.00 42 1008.3
20260507183022 57 239 10.0 18.0 0.00 0.00 0.00 42 1008.6
20260507181521 56 262 11.0 19.0 0.00 0.00 0.00 42 1008.7
20260507180022 56 256 9.0 19.0 0.00 0.00 0.00 42 1009.0
20260507174519 56 240 11.0 21.0 0.00 0.00 0.00 41 1008.9
20260507173030 57 248 14.0 24.0 0.00 0.00 0.00 40 1008.8
20260507171517 56 207 14.0 25.0 0.00 0.00 0.00 40 1008.8
20260507170019 56 237 11.0 22.0 0.00 0.00 0.00 42 1008.9
20260507164515 56 221 11.0 18.0 0.00 0.00 0.00 42 1008.9
20260507163013 56 203 14.0 22.0 0.00 0.00 0.00 43 1008.9
20260507161520 56 231 14.0 21.0 0.00 0.00 0.00 43 1008.9
20260507160012 56 239 12.0 24.0 0.00 0.00 0.00 43 1009.1
20260507154511 55 200 14.0 25.0 0.00 0.00 0.00 44 1009.0
20260507153009 57 219 17.0 27.0 0.00 0.00 0.00 43 1009.1
20260507151507 56 231 18.0 26.0 0.00 0.00 0.00 44 1009.0
20260507150003 55 200 15.0 22.0 0.00 0.00 0.00 47 1009.1
20260507144617 55 212 11.0 19.0 0.00 0.00 0.00 50 1009.5
20260507143057 54 214 5.0 10.0 0.00 0.00 0.00 52 1009.6
20260507141612 53 219 9.0 13.0 0.00 0.00 0.00 54 1009.7
20260507140049 52 217 3.0 6.0 0.00 0.00 0.00 56 1009.7
20260507134549 50 215 7.0 10.0 0.00 0.00 0.00 63 1009.7
20260507133044 50 206 4.0 8.0 0.00 0.00 0.00 63 1009.7
20260507131545 48 345 5.0 6.0 0.00 0.00 0.00 68 1009.7
20260507130044 45 345 7.0 11.0 0.00 0.00 0.00 73 1009.8
20260507124543 44 345 6.0 8.0 0.00 0.00 0.00 74 1009.8
20260507123046 43 345 5.0 8.0 0.00 0.00 0.00 74 1009.8
20260507121541 43 345 4.0 6.0 0.00 0.00 0.00 75 1009.8
20260507120045 44 345 0.0 3.0 0.00 0.00 0.00 74 1009.6
20260507114541 44 345 5.0 9.0 0.00 0.00 0.00 74 1009.4
20260507113036 44 345 6.0 9.0 0.00 0.00 0.00 73 1009.5
20260507111540 46 345 6.0 10.0 0.00 0.00 0.00 71 1009.7
20260507110030 47 328 8.0 11.0 0.00 0.00 0.00 71 1010.0
20260507104528 49 331 8.0 14.0 0.00 0.00 0.00 69 1010.2
20260507103032 50 292 5.0 6.0 0.00 0.00 0.00 60 1010.4
20260507101532 49 345 8.0 10.0 0.00 0.00 0.00 61 1010.4
20260507100034 50 345 8.0 11.0 0.00 0.00 0.00 61 1010.4
20260507094538 49 305 8.0 11.0 0.00 0.00 0.00 61 1010.1
20260507093031 49 345 7.0 11.0 0.00 0.00 0.00 62 1010.1
20260507091528 49 312 4.0 8.0 0.00 0.00 0.00 63 1010.1
20260507090029 48 345 4.0 9.0 0.00 0.00 0.00 65 1010.0
20260507084524 49 325 4.0 6.0 0.00 0.00 0.00 62 1010.0
20260507083019 49 322 5.0 6.0 0.00 0.00 0.00 63 1010.0
20260507081523 49 345 3.0 9.0 0.00 0.00 0.00 62 1010.2
20260507080017 49 312 6.0 10.0 0.00 0.00 0.00 63 1010.2
20260507074516 47 345 7.0 9.0 0.00 0.00 0.00 63 1010.1
20260507073012 49 294 8.0 10.0 0.00 0.00 0.00 62 1010.1
20260507071511 49 304 6.0 8.0 0.00 0.00 0.00 62 1010.2
20260507070013 50 228 5.0 8.0 0.00 0.00 0.00 62 1010.3
20260507064507 50 215 8.0 10.0 0.00 0.00 0.00 61 1010.4
20260507063004 50 205 6.0 8.0 0.00 0.00 0.00 60 1010.5
20260507061502 50 212 5.0 6.0 0.00 0.00 0.00 60 1010.7
20260507060105 50 214 5.0 6.0 0.00 0.00 0.00 58 1010.8
20260507054607 52 345 6.0 9.0 0.00 0.00 0.00 55 1010.8
20260507053100 52 345 7.0 10.0 0.00 0.00 0.00 53 1010.8
20260507051557 53 345 7.0 11.0 0.00 0.00 0.00 51 1010.9
20260507050056 54 345 8.0 12.0 0.00 0.00 0.00 49 1011.0
20260507044601 55 345 8.0 13.0 0.00 0.00 0.00 48 1011.0
20260507043057 55 345 6.0 15.0 0.00 0.00 0.00 48 1011.2
20260507041553 55 345 10.0 16.0 0.00 0.00 0.00 49 1011.0
20260507040052 55 345 17.0 27.0 0.00 0.00 0.00 48 1011.2
20260507034558 56 192 18.0 34.0 0.00 0.00 0.00 47 1011.6